OPS 4682 DEB, 38391

Orbit data source: Space-Track

OPS 4682 DEB, 38391 is space debris in LEO originally from a launch on Sat, 03 Apr 1965 UTC launched from the Air Force Western Test Range (AFWTR). Debris objects in space refer to the collection of defunct objects orbiting the Earth. Examples of debris include non-operational satellites, rocket bodies, and fragments generated from explosions, collisions, or faulty payload assembly.

Loading next visibility...
Identifier
38391, 1965-027CU
Orbit
LEO
Country
Flag of USUS
Related business
Manufacturer
Unknown
Mission
Spacecraft
Bus & Motor
Unknown
Mass
Unknown
Launch date (UTC)
1965-04-03 (61 years ago)
Launch vehicle
Unknown
Launch site
Air Force Western Test Range (AFWTR)
Object type
Payload
Rocket body
Debris
Shape & HBR
Unknown shape, 0.1 m
Radar Cross Section
Medium (>0.1 m² and <1 m²)

Expand to show TLE details & history
Last TLE update: 2 weeks ago

TLE from 2 weeks ago
0 OPS 4682 DEB
1 38391U 65027CU  26237.32041073 -.00000393  00000-0 -13562-2 0  9990
2 38391  90.2289   9.3331 0042909 225.5684 134.1924 12.98464640608744
Epoch: 2026-08-25T07:41Z
TLE epoch observation values (Epoch: 2026-08-25T07:41:23.487Z)
Latitude
0.00008°
Longitude
-79.60421°
Altitude
1,293.936 km
Speed
7.198 km/s
True Right ascension
00h 37m 19s
True Declination
0° 00' 00"
Sunlit
Object was in full shadow at epoch
Visualization orbit readout
Latitude
Unknown
Longitude
Unknown
Altitude
Unknown
Speed
Unknown
Apparent Right ascension
Unknown
Apparent Declination
Unknown
Sunlit
N/A
Visualization observer readout
Local Sidereal Time
06:19:53
Azimuth
Unknown
Elevation
Unknown
Doppler factor
Unknown
Orbital elements
Apogee altitude
1,298.034 km
Perigee altitude
1,232.44 km
Semi-major axis
7,643.374 km
Eccentricity
0.00429
Inclination
90.2289°
RAAN
9.3331°
Arg. of periapsis
225.5684°
True anomaly
134.54364°
Mean anomaly
134.1924°
Eccentric anomaly
134.36815°
Mean motion
3.248 °/min
Orbital period
110.84 mins
BSTAR
-0.0013562
Loading maneuver chart data...
Computing Atmospheric mass density...
Loading historical data...
Loading historical data...
Loading historical data...
Loading historical data...
Loading historical data...
Loading historical data...
Loading historical data...

Documentation

Showing up to 5 results
|